LEMUR-2-KADI (43184 NORAD) Tracking and Keplerian Element Data

This shows tracking and keplerian element data for the satellite.

Feedback or suggestion? Click here.




ElementValue
Catalog43184
NameLEMUR-2-KADI
Epoch Orbit38394
Epoch Day34.81932303
Epoch Year2025
RAAN303.4826
Inclination97.5352
Eccentricity0.0006125
Argument of Perigee235.1607
Mean Anonmoly124.9056
Mean Motion15.27080947
Decay Rate0.00029783
L11 43184U 18014E 25034.81932303 .00029783 00000+0 11201-2 0 9992
L22 43184 97.5352 303.4826 0006125 235.1607 124.9056 15.27080947383944



Live tracking and technical data element details for LEMUR-2-KADI (NORAD 43184). LEMUR-2-KADI can be tracked NOW for your location showing map with azimuth and elevation plus other details from your city location.







IsCatalogInMostPopularTable: catalog: 43184, numindb: 357
Update: records affected: 1



GetName: 43184 LEMUR-2-KADI

Hit Count: updated at: Thu, 22 May 2025 02:59:12 GMT